Weather History for Medford, OR

Change the Weather History Date:

Tuesday, February 19, 2013

  Actual Average Record
Temperature  
Mean Temperature 40 °F 45 °F  
Max Temperature 46 °F 55 °F 72 °F (1995)
Min Temperature 33 °F 34 °F 20 °F (1955)
Degree Days  
Heating Degree Days 25 20  
Month to date heating degree days 448 407  
Since 1 July heating degree days 2867 2939  
Cooling Degree Days 0 0  
Month to date cooling degree days 0 0  
Year to date cooling degree days 0 0  
Moisture  
Dew Point 32 °F    
Average Humidity 73    
Maximum Humidity 92    
Minimum Humidity 53    
Precipitation  
Precipitation 0.03 in 0.07 in 0.86 in (1986)
Month to date precipitation 0.16 1.37  
Year to date precipitation 1.12 3.80  
Snow  
Snow 0.00 in 0.00 in - ()
Month to date snowfall 0.0 0.4  
Since 1 July snowfall 1.7 3.4  
Snow Depth 0.00 in    
Sea Level Pressure  
Sea Level Pressure 29.76 in    
Wind  
Wind Speed 3 mph (NW)    
Max Wind Speed 13 mph    
Max Gust Speed 16 mph    
Visibility 10 miles    
Events Rain , Snow    
T = Trace of Precipitation, MM = Missing Value Source: NWS Daily Summary

Daily Weather History Graph

Daily Weather History Graph

Search for Another Location

Airport:

Trip Planner

Search our weather history database for the weather conditions in past years. The results will help you decide how hot, cold, wet, or windy it might be!

Date:

Astronomy

Feb. 19, 2013 Rise Set
Actual Time 7:01 AM PST 5:49 PM PST
Civil Twilight 6:33 AM PST 6:17 PM PST
Nautical Twilight 6:00 AM PST 6:50 PM PST
Astronomical Twilight 5:28 AM PST 7:23 PM PST
Moon 12:21 PM PST (2/19) 2:41 AM PST (2/19)
Length of Visible Light 11h 44m
Length of Day
10h 47m
Waxing Gibbous, 68% of the Moon is Illuminated
Feb 19
Waxing Gibbous
Feb 25
Full
Mar 4
Last Quarter
Mar 11
New
Mar 19
First Quarter

Hourly Weather History & Observations

Time (PST) Temp. Windchill Dew Point Humidity Pressure Visibility Wind Dir Wind Speed Gust Speed Precip Events Conditions
12:53 AM 35.1 °F - 30.0 °F 82% 29.77 in 10.0 mi Calm Calm - 0.00 in   Scattered Clouds
1:53 AM 36.0 °F - 30.9 °F 82% 29.73 in 10.0 mi Calm Calm - 0.00 in Rain Light Rain
2:10 AM 33.8 °F 28.6 °F 30.2 °F 87% 29.70 in 10.0 mi East 5.8 mph - 0.00 in   Mostly Cloudy
2:17 AM 33.8 °F - 30.2 °F 87% 29.70 in 10.0 mi Calm Calm - 0.00 in   Scattered Clouds
2:53 AM 34.0 °F 28.8 °F 30.9 °F 89% 29.70 in 10.0 mi WNW 5.8 mph - 0.00 in   Mostly Cloudy
3:53 AM 33.1 °F 28.7 °F 30.9 °F 92% 29.69 in 10.0 mi Variable 4.6 mph - N/A   Overcast
4:53 AM 34.0 °F 29.8 °F 30.9 °F 89% 29.67 in 10.0 mi SW 4.6 mph - N/A   Overcast
5:53 AM 35.1 °F 31.0 °F 32.0 °F 89% 29.65 in 10.0 mi NNW 4.6 mph - 0.00 in   Overcast
6:27 AM 35.6 °F - 32.0 °F 87% 29.65 in 7.0 mi Calm Calm - 0.00 in Rain Light Rain
6:53 AM 34.0 °F 28.0 °F 32.0 °F 92% 29.67 in 5.0 mi ESE 6.9 mph - 0.02 in Snow Light Snow
7:09 AM 33.8 °F 26.4 °F 32.0 °F 93% 29.65 in 7.0 mi ESE 9.2 mph - 0.01 in Rain Light Rain
7:53 AM 35.1 °F - 32.0 °F 89% 29.68 in 10.0 mi Calm Calm - 0.01 in   Overcast
8:49 AM 35.6 °F - 33.8 °F 93% 29.68 in 10.0 mi Calm Calm - N/A   Scattered Clouds
8:53 AM 36.0 °F - 33.1 °F 89% 29.70 in 10.0 mi Calm Calm - N/A   Mostly Cloudy
10:27 AM 39.2 °F 37.0 °F 33.8 °F 81% 29.71 in 10.0 mi North 3.5 mph - N/A   Mostly Cloudy
10:53 AM 39.0 °F 36.8 °F 32.0 °F 76% 29.73 in 10.0 mi NW 3.5 mph - N/A   Clear
11:43 AM 41.0 °F - 33.8 °F 76% 29.73 in 10.0 mi Calm Calm - N/A   Mostly Cloudy
11:53 AM 41.0 °F - 32.0 °F 70% 29.75 in 10.0 mi Calm Calm - N/A   Mostly Cloudy
12:53 PM 42.1 °F - 32.0 °F 67% 29.75 in 10.0 mi Calm Calm - N/A   Mostly Cloudy
1:53 PM 43.0 °F 38.8 °F 28.9 °F 58% 29.75 in 10.0 mi NW 6.9 mph - 0.01 in   Overcast
2:53 PM 45.0 °F 41.8 °F 28.0 °F 52% 29.77 in 10.0 mi WNW 5.8 mph - N/A   Mostly Cloudy
4:53 PM 43.0 °F 38.8 °F 33.1 °F 68% 29.80 in 10.0 mi West 6.9 mph - 0.00 in Rain Light Rain
5:53 PM 43.0 °F - 32.0 °F 65% 29.83 in 10.0 mi Calm Calm - 0.00 in   Overcast
6:53 PM 43.0 °F 41.3 °F 30.9 °F 62% 29.86 in 10.0 mi WNW 3.5 mph - N/A   Overcast
7:53 PM 41.0 °F 38.0 °F 32.0 °F 70% 29.88 in 10.0 mi NW 4.6 mph - N/A   Overcast
8:53 PM 39.9 °F 35.8 °F 32.0 °F 73% 29.91 in 10.0 mi NW 5.8 mph - N/A   Overcast
9:53 PM 39.9 °F 36.7 °F 32.0 °F 73% 29.94 in 10.0 mi WNW 4.6 mph - N/A   Overcast
10:53 PM 37.9 °F - 32.0 °F 79% 29.97 in 10.0 mi Calm Calm - N/A   Mostly Cloudy
11:53 PM 37.9 °F - 32.0 °F 79% 29.99 in 10.0 mi Calm Calm - N/A   Overcast